Regional Weather Roundup
Issued by NWS

Home | Current Version | Previous Version | Text Only | Print | Product List | Glossary On
Versions: 1 2 3 4 5 6 7 8 9 10 11 12 13 14 15 16 17 18 19 20 21 22 23 24 25 26 27 28 29 30 31 32 33 34 35 36 37 38 39 40 41 42 43 44 45 46 47 48 49 50
000
ASCA42 TJSJ 300711
RWRPR
PUERTO RICO/U.S. VIRGIN ISLANDS HOURLY WEATHER ROUNDUP
NATIONAL WEATHER SERVICE SAN JUAN PR
300 AM AST TUE SEP 30 2014

PRZ001-004-300800-
PUERTO RICO

CITY           SKY/WX    TMP DP  RH WIND       PRES   REMARKS
SAN JUAN LMM   PTCLDY    79  75  89 CALM      29.93F
PONCE          PTCLDY    75  72  88 NE6       29.93
CEIBA          CLEAR     77  73  88 SW6       29.96F
$$

PRZ006-007-300800-
U.S. VIRGIN ISLANDS

CITY           SKY/WX    TMP DP  RH WIND       PRES   REMARKS
CHRISTIANSTED  PTCLDY    81  75  83 E6        29.95
$$

HOURLY WEATHER ROUNDUP FOR THE NEWS MEDIA

CITY           SKY/WX    TMP DP  RH WIND       PRES   REMARKS
MIAMI          CLOUDY    78  75  90 CALM      29.85F
ORLANDO        MOCLDY    75  73  93 SW6       29.83F
NEW YORK       CLOUDY    67  62  84 SW6       29.93F
NEWARK         CLOUDY    67  60  78 SW6       29.93S
CHICAGO        CLOUDY    53  47  79 NE14      30.02S
HARTFORD       CLOUDY    59  58  96 VRB5      29.97F
BOSTON         CLOUDY    57  55  93 N8        30.02R
DALLAS         PTCLDY    75  64  68 E5        29.90S
PHILADELPHIA   CLOUDY    66  62  87 CALM      29.93F


USA.gov is the U.S. government's official web portal to all federal, state and local government web resources and services.